Regional Weather Roundup
Issued by NWS

Home | Current Version | Previous Version | Graphics & Text | Print | Product List | Glossary On
Versions: 1 2 3 4 5 6 7 8 9 10 11 12 13 14 15 16 17 18 19 20 21 22 23 24 25 26 27 28 29 30 31 32 33 34 35 36 37 38 39 40 41 42 43 44 45 46 47 48 49 50
000
ASUS43 KIND 220459
RWRIN

WEATHER ROUNDUP FOR INDIANA
NATIONAL WEATHER SERVICE INDIANAPOLIS IN
100 AM EDT TUE MAY 22 2018

NOTE: "FAIR" INDICATES FEW OR NO CLOUDS BELOW 12,000 FEET WITH NO
SIGNIFICANT WEATHER AND/OR OBSTRUCTIONS TO VISIBILITY.

* - STATION DOES NOT REPORT WEATHER SUCH AS PRECIPITATION OR FOG.

+ - STATION NOT QUALITY CONTROLLED BY THE NATIONAL WEATHER SERVICE.
    USE DATA WITH CAUTION...ESPECIALLY DEWPOINT AND RELATIVE
    HUMIDITY OBSERVATIONS.

INZ001>003-010>013-019-020-220600-
NORTHWEST INDIANA

CITY           SKY/WX    TMP DP  RH WIND       PRES   REMARKS
MICHIGAN CITY+ MOCLDY    61  61 100 CALM      29.99S FOG
MONTICELLO +   FOG       63  62  95 CALM      29.99S VSB 1/4
RENSSELAER +   CLOUDY    66  61  82 CALM      29.99S
VALPARAISO     MOCLDY    63  63 100 NE3       29.99S FOG

$$

LMZ046-743>745-220600-
SOUTHERN LAKE MICHIGAN

STATION/POSITION TIME  TEMP    WIND        PRES    WAVE
                       AIR SEA DIR/SP/G            HT
                 (UTC) (F)     (DEG/KT/KT) (MB)    (FT)
BURNS HARBOR     0440   53        CALM     1016.3R
5NW MICH CITY    0450   56 54  330/  4/  6   N/A     1

$$

INZ004-005-014>016-021>024-220600-
NORTH CENTRAL INDIANA

CITY           SKY/WX    TMP DP  RH WIND       PRES   REMARKS
GOSHEN         MOCLDY    59  57  93 SE7       30.01S FOG
SOUTH BEND     CLOUDY    60  59  96 SE5       30.01S

$$

INZ006>009-017-018-025>027-220600-
NORTHEAST INDIANA

CITY           SKY/WX    TMP DP  RH WIND       PRES   REMARKS
ANGOLA *+        N/A     55  54  94 SE8       30.02F
FORT WAYNE     MOCLDY    59  57  93 E6        30.03S FOG

$$

INZ028-029-035-036-043>045-051>053-220600-
WEST CENTRAL INDIANA

CITY           SKY/WX    TMP DP  RH WIND       PRES   REMARKS
CRAWFORDSVL +  FAIR      65  65 100 S6        30.01S
GREENCASTLE +  FAIR      64  64 100 CALM      30.03S
LAFAYETTE      FAIR      65  64  97 CALM      29.99R
TERRE HAUTE    FAIR      67  66  97 S3        30.01F

$$

INZ030>032-037>040-046>048-054>057-064-065-220600-
CENTRAL INDIANA

CITY           SKY/WX    TMP DP  RH WIND       PRES   REMARKS
ANDERSON       FAIR      65  64  95 SW3       30.03S
INDIANAPOLIS   FAIR      67  66  97 S5        30.01F
-EAGLE CREEK   FAIR      68  65  90 CALM      30.01S
KOKOMO +       FAIR      66  65  96 S6        30.02R
MT COMFORT *+  FAIR      66  66 100 S6        30.03S
SHELBYVILLE    FAIR      69  66  90 S6        30.02S

$$

INZ033-034-041-042-049-050-058-059-220600-
EAST CENTRAL INDIANA

CITY           SKY/WX    TMP DP  RH WIND       PRES   REMARKS
MUNCIE         FAIR      69  65  86 S5        30.02S
RICHMOND +     CLOUDY    64  64 100 SE12      30.06S

$$

INZ060-061-067>069-081>083-085>088-220600-
SOUTHWEST INDIANA

CITY           SKY/WX    TMP DP  RH WIND       PRES   REMARKS
EVANSVILLE     FAIR      69  69 100 CALM      30.02F
HUNTINGBURG +  FAIR      67  67 100 SE6       30.03F

$$

INZ062-063-066-070>080-084-089>092-220600-
SOUTH CENTRAL AND SOUTHEAST INDIANA

CITY           SKY/WX    TMP DP  RH WIND       PRES   REMARKS
BLOOMINGTON    FAIR      66  66 100 CALM      30.03S
FRENCH LICK *+ FAIR      64 N/A N/A CALM      30.04F
SEYMOUR +      FAIR      70  68  94 S3        30.03F

$$





USA.gov is the U.S. government's official web portal to all federal, state and local government web resources and services.